EN

Hourly Weather Osiecko

Today, 13 May, Thursday

Time Temperature Precipitation Wind Pressure Humidity
00:00 +14°C° 0.3 mm 2 mps 728 mmHg 95%
01:00 +14°C° 0.3 mm 2 mps 728 mmHg 95%
02:00 +14°C° 0.2 mm 2 mps 728 mmHg 95%
03:00 +13°C° 0.2 mm 2 mps 728 mmHg 96%
04:00 +13°C° 0.2 mm 2 mps 727 mmHg 96%
05:00 +13°C° 0.1 mm 2 mps 727 mmHg 93%
06:00 +13°C° 0.1 mm 2 mps 727 mmHg 91%
07:00 +13°C° 0.1 mm 2 mps 727 mmHg 89%
08:00 +14°C° 0 mm 2 mps 727 mmHg 83%
09:00 +16°C° 0 mm 2 mps 727 mmHg 77%
10:00 +17°C° 0 mm 2 mps 727 mmHg 72%
11:00 +18°C° 0 mm 2 mps 726 mmHg 69%
12:00 +18°C° 0 mm 2 mps 726 mmHg 65%
13:00 +19°C° 0 mm 2 mps 726 mmHg 62%
14:00 +18°C° 0.1 mm 2 mps 726 mmHg 67%
15:00 +18°C° 0.1 mm 3 mps 726 mmHg 71%
16:00 +17°C° 0.1 mm 3 mps 725 mmHg 76%
17:00 +16°C° 0.2 mm 3 mps 725 mmHg 80%
18:00 +14°C° 0.2 mm 3 mps 726 mmHg 85%
19:00 +13°C° 0.2 mm 4 mps 726 mmHg 89%
20:00 +12°C° 0.1 mm 4 mps 726 mmHg 91%
21:00 +12°C° 0.1 mm 4 mps 726 mmHg 93%
22:00 +11°C° 0.1 mm 4 mps 726 mmHg 94%
23:00 +11°C° 0 mm 4 mps 726 mmHg 95%

Tomorrow, 14 May, Friday

Time Temperature Precipitation Wind Pressure Humidity
00:00 +11°C° 0 mm 4 mps 726 mmHg 95%
01:00 +10°C° 0 mm 4 mps 726 mmHg 95%
02:00 +10°C° 0.1 mm 4 mps 727 mmHg 96%
03:00 +10°C° 0.1 mm 4 mps 727 mmHg 96%
04:00 +10°C° 0.1 mm 4 mps 727 mmHg 96%
05:00 +10°C° 0 mm 4 mps 727 mmHg 95%
06:00 +10°C° 0 mm 4 mps 728 mmHg 94%
07:00 +10°C° 0 mm 4 mps 728 mmHg 94%
08:00 +9°C° 0 mm 5 mps 729 mmHg 92%
09:00 +10°C° 0 mm 5 mps 729 mmHg 89%
10:00 +10°C° 0 mm 5 mps 730 mmHg 87%
11:00 +10°C° 0 mm 5 mps 730 mmHg 86%
12:00 +10°C° 0 mm 5 mps 730 mmHg 85%
13:00 +10°C° 0 mm 5 mps 730 mmHg 84%
14:00 +10°C° 0 mm 5 mps 731 mmHg 82%
15:00 +10°C° 0 mm 5 mps 731 mmHg 81%
16:00 +10°C° 0 mm 5 mps 731 mmHg 79%
17:00 +11°C° 0 mm 4 mps 731 mmHg 80%
18:00 +11°C° 0 mm 4 mps 731 mmHg 81%
19:00 +11°C° 0 mm 3 mps 731 mmHg 82%
20:00 +10°C° 0 mm 3 mps 732 mmHg 85%
21:00 +9°C° 0 mm 3 mps 732 mmHg 88%
22:00 +9°C° 0 mm 3 mps 732 mmHg 91%
23:00 +8°C° 0 mm 2 mps 732 mmHg 91%

Day after tomorrow, 15 May, Saturday

Time Temperature Precipitation Wind Pressure Humidity
00:00 +8°C° 0 mm 2 mps 732 mmHg 92%
01:00 +8°C° 0 mm 2 mps 732 mmHg 93%
02:00 +8°C° 0 mm 2 mps 732 mmHg 93%
03:00 +7°C° 0 mm 2 mps 732 mmHg 94%
04:00 +7°C° 0 mm 2 mps 732 mmHg 94%
05:00 +9°C° 0 mm 2 mps 733 mmHg 88%
06:00 +10°C° 0 mm 2 mps 733 mmHg 83%
07:00 +12°C° 0 mm 2 mps 733 mmHg 77%
08:00 +14°C° 0 mm 2 mps 733 mmHg 71%
09:00 +15°C° 0 mm 2 mps 733 mmHg 65%
10:00 +17°C° 0 mm 2 mps 733 mmHg 60%
11:00 +18°C° 0.2 mm 2 mps 733 mmHg 58%
12:00 +19°C° 0.2 mm 1 mps 733 mmHg 56%
13:00 +20°C° 0.2 mm 1 mps 732 mmHg 53%
14:00 +19°C° 0.4 mm 1 mps 732 mmHg 57%
15:00 +19°C° 0.4 mm 1 mps 732 mmHg 60%
16:00 +19°C° 0.4 mm 1 mps 732 mmHg 63%
17:00 +17°C° 0.8 mm 2 mps 731 mmHg 70%
18:00 +15°C° 0.8 mm 2 mps 731 mmHg 76%
19:00 +14°C° 0.8 mm 2 mps 731 mmHg 83%
20:00 +14°C° 0.4 mm 2 mps 731 mmHg 86%
21:00 +13°C° 0.4 mm 2 mps 731 mmHg 89%
22:00 +12°C° 0.4 mm 2 mps 730 mmHg 91%
23:00 +12°C° 0.3 mm 2 mps 730 mmHg 93%

16 May, Sunday

Time Temperature Precipitation Wind Pressure Humidity
00:00 +12°C° 0.3 mm 2 mps 730 mmHg 94%
01:00 +10°C° 0.3 mm 2 mps 730 mmHg 95%
02:00 +10°C° 0.4 mm 2 mps 730 mmHg 95%
03:00 +10°C° 0.4 mm 2 mps 730 mmHg 95%
04:00 +11°C° 0.4 mm 1 mps 730 mmHg 95%
05:00 +12°C° 0.5 mm 1 mps 730 mmHg 95%
06:00 +12°C° 0.5 mm 1 mps 730 mmHg 94%
07:00 +12°C° 0.5 mm 1 mps 730 mmHg 94%
08:00 +12°C° 0.4 mm 2 mps 730 mmHg 93%
09:00 +12°C° 0.4 mm 2 mps 730 mmHg 91%
10:00 +12°C° 0.4 mm 2 mps 730 mmHg 90%
11:00 +11°C° 0.8 mm 3 mps 730 mmHg 90%
12:00 +11°C° 0.8 mm 3 mps 730 mmHg 91%
13:00 +11°C° 0.8 mm 4 mps 730 mmHg 91%
14:00 +11°C° 0.5 mm 3 mps 730 mmHg 90%
15:00 +12°C° 0.5 mm 2 mps 730 mmHg 89%
16:00 +12°C° 0.5 mm 2 mps 730 mmHg 87%
17:00 +12°C° 0 mm 2 mps 730 mmHg 88%
18:00 +10°C° 0 mm 2 mps 730 mmHg 89%
19:00 +10°C° 0 mm 2 mps 730 mmHg 90%
20:00 +9°C° 0 mm 2 mps 730 mmHg 92%
21:00 +9°C° 0 mm 2 mps 730 mmHg 93%
22:00 +8°C° 0 mm 2 mps 730 mmHg 95%
23:00 +8°C° 0 mm 2 mps 730 mmHg 94%

17 May, Monday

Time Temperature Precipitation Wind Pressure Humidity
00:00 +8°C° 0 mm 2 mps 730 mmHg 94%
01:00 +7°C° 0 mm 2 mps 730 mmHg 94%
02:00 +7°C° 0 mm 2 mps 730 mmHg 94%
03:00 +7°C° 0 mm 2 mps 730 mmHg 94%
04:00 +7°C° 0 mm 2 mps 730 mmHg 94%
05:00 +8°C° 0 mm 2 mps 730 mmHg 90%
06:00 +10°C° 0 mm 3 mps 731 mmHg 86%
07:00 +11°C° 0 mm 3 mps 731 mmHg 83%
08:00 +12°C° 0 mm 3 mps 731 mmHg 76%
09:00 +13°C° 0 mm 3 mps 731 mmHg 69%
10:00 +16°C° 0 mm 3 mps 731 mmHg 63%
11:00 +16°C° 0 mm 3 mps 731 mmHg 59%
12:00 +17°C° 0 mm 3 mps 731 mmHg 55%
13:00 +18°C° 0 mm 3 mps 731 mmHg 52%
14:00 +18°C° 0 mm 3 mps 731 mmHg 52%
15:00 +18°C° 0 mm 2 mps 730 mmHg 53%
16:00 +18°C° 0 mm 2 mps 730 mmHg 54%
17:00 +16°C° 0.4 mm 2 mps 730 mmHg 63%
18:00 +15°C° 0.4 mm 2 mps 730 mmHg 72%
19:00 +13°C° 0.4 mm 2 mps 730 mmHg 81%
20:00 +12°C° 1.1 mm 2 mps 731 mmHg 86%
21:00 +12°C° 1.1 mm 2 mps 731 mmHg 91%
22:00 +10°C° 1.1 mm 2 mps 731 mmHg 95%
23:00 +10°C° 1.2 mm 2 mps 731 mmHg 95%

18 May, Tuesday

Time Temperature Precipitation Wind Pressure Humidity
00:00 +10°C° 1.2 mm 2 mps 731 mmHg 95%
01:00 +10°C° 1.2 mm 2 mps 731 mmHg 94%
02:00 +9°C° 0.8 mm 3 mps 731 mmHg 94%
03:00 +9°C° 0.8 mm 3 mps 731 mmHg 94%
04:00 +9°C° 0.8 mm 3 mps 731 mmHg 94%
05:00 +8°C° 0.4 mm 4 mps 732 mmHg 93%
06:00 +8°C° 0.4 mm 4 mps 732 mmHg 92%
07:00 +8°C° 0.4 mm 4 mps 732 mmHg 91%
08:00 +9°C° 0.1 mm 5 mps 733 mmHg 87%
09:00 +9°C° 0.1 mm 5 mps 733 mmHg 83%
10:00 +10°C° 0.1 mm 5 mps 733 mmHg 79%
11:00 +12°C° 0.2 mm 5 mps 733 mmHg 76%
12:00 +12°C° 0.2 mm 5 mps 734 mmHg 74%
13:00 +13°C° 0.2 mm 6 mps 734 mmHg 72%
14:00 +13°C° 0.3 mm 6 mps 734 mmHg 73%
15:00 +13°C° 0.3 mm 6 mps 734 mmHg 74%
16:00 +13°C° 0.3 mm 6 mps 734 mmHg 75%
17:00 +11°C° 0.1 mm 6 mps 735 mmHg 77%
18:00 +10°C° 0.1 mm 5 mps 735 mmHg 80%
19:00 +9°C° 0.1 mm 5 mps 736 mmHg 82%
20:00 +8°C° 0 mm 4 mps 736 mmHg 84%
21:00 +7°C° 0 mm 4 mps 736 mmHg 87%
22:00 +6°C° 0 mm 4 mps 737 mmHg 89%
23:00 +6°C° 0 mm 4 mps 737 mmHg 90%
Show more

We Need Your Consent

Meteoprog and our Service Providers may store and access personal data such as cookies, device identifiers or other similar technologies on your device and process such data to personalise content and ads, as well as provide social media features and to analyse the traffic.

  • Store and/or access information on your device

    Cookies, device identifiers or other information can be stored or accessed on your device for the purposes indicated above.

  • Personalised ads and content, ad and content measurement, audience insights, and products development

    Ads and content can be personalised based on a profile. More data can be added to better personalise ads and content. Ad and content performance can be measured. Insights about the audience who saw the ads and content can be derived. Such data can be used to develop or improve user’s experience, systems and software.

By clicking ‘I Agree’ you will allow the use of indicated cookies, device identifiers, web beacons or other similar technologies. Your settings can be changed in the browser on your device.

For certain purposes, legitimate interests may be relied on, rather than consent. You can read more about this in our Privacy and Cookie Policy.